sat.trackr.live / text

‹ back to catalog

2024-174E

NORAD 61242 · 2024-174E

PAYLOAD ACTIVE UNKNOWN

§ Identity

Operator
Country
PRC
Launch date
2024-09-24
Launch site
JSC
Launch vehicle
Mass (kg)
RCS (m²)

External: N2YO · Heavens-Above · Gunter

§ Orbital elements

Epoch: 2026-09-22T23:18:58.509792Z

Period
94.21 min
Inclination
97.4472°
Eccentricity
0.0011079
Mean motion
15.28550273 rev/d
Perigee alt
472.5 km
Apogee alt
487.7 km
Semi-major
6,858.3 km
B*
1.6370e-4
RAAN
276.8856°
Arg perigee
244.6846°
Mean anomaly
115.3246°
Rev number
11,077

§ Raw data

2024-174E1 61242U 24174E   26265.97151053  .00004477  00000+0  16370-3 0  99962 61242  97.4472 276.8856 0011079 244.6846 115.3246 15.28550273110770

JSON: /api/v1/satellites/61242 · /tle

For live sub-satellite position, see the globe view (requires WebGL).

§ Visibility from observer

Set your observer location to see the next 7 days of passes ≥ 10°. The values pass through the URL so the page stays shareable.

No JS? Fill the form by hand. The geolocation button needs JavaScript.